| time (UTC) | temp C | wind direction | speed KPH | gust KPH | rain 1hr cm | rain 24hr cm | rain mn cm | humidity % | barometer mb |
| 20260504231551 | 10 | 235 | 16.1 | 19.3 | 0.00 | 1.65 | 0.05 | 70 | 1005.1 |
| 20260504231052 | 10 | 236 | 11.3 | 20.9 | 0.00 | 1.68 | 0.05 | 70 | 1005.2 |
| 20260504230604 | 10 | 249 | 14.5 | 20.9 | 0.00 | 1.68 | 0.05 | 70 | 1005.1 |
| 20260504230058 | 10 | 249 | 14.5 | 20.9 | 0.00 | 1.70 | 0.05 | 69 | 1005.0 |
| 20260504225550 | 10 | 262 | 9.7 | 25.7 | 0.00 | 1.75 | 0.05 | 69 | 1004.8 |
| 20260504225050 | 10 | 232 | 9.7 | 25.7 | 0.00 | 1.80 | 0.05 | 69 | 1004.8 |
| 20260504224547 | 10 | 248 | 6.4 | 24.1 | 0.00 | 1.83 | 0.05 | 69 | 1004.6 |
| 20260504224048 | 10 | 250 | 12.9 | 17.7 | 0.00 | 1.88 | 0.05 | 70 | 1004.9 |
| 20260504223547 | 10 | 226 | 8.0 | 17.7 | 0.00 | 1.93 | 0.05 | 70 | 1004.5 |
| 20260504223046 | 10 | 238 | 12.9 | 17.7 | 0.00 | 1.98 | 0.05 | 69 | 1004.6 |
| 20260504222547 | 10 | 248 | 4.8 | 22.5 | 0.00 | 2.03 | 0.05 | 70 | 1004.4 |
| 20260504222045 | 10 | 236 | 14.5 | 22.5 | 0.00 | 2.11 | 0.05 | 69 | 1004.5 |
| 20260504221539 | 10 | 256 | 6.4 | 17.7 | 0.00 | 2.13 | 0.05 | 69 | 1004.4 |
| 20260504221051 | 10 | 237 | 6.4 | 25.7 | 0.00 | 2.16 | 0.05 | 68 | 1004.5 |
| 20260504220538 | 10 | 262 | 11.3 | 25.7 | 0.00 | 2.18 | 0.05 | 68 | 1004.4 |
| 20260504220037 | 10 | 244 | 12.9 | 19.3 | 0.00 | 2.18 | 0.05 | 68 | 1004.8 |
| 20260504215537 | 10 | 264 | 9.7 | 24.1 | 0.00 | 2.26 | 0.05 | 69 | 1004.6 |
| 20260504215038 | 10 | 250 | 14.5 | 24.1 | 0.00 | 2.29 | 0.05 | 69 | 1004.7 |
| 20260504214538 | 10 | 253 | 14.5 | 24.1 | 0.00 | 2.31 | 0.05 | 69 | 1004.8 |
| 20260504214037 | 10 | 239 | 9.7 | 24.1 | 0.00 | 2.36 | 0.05 | 68 | 1004.8 |
| 20260504213036 | 10 | 236 | 17.7 | 24.1 | 0.00 | 2.44 | 0.05 | 69 | 1004.7 |
| 20260504212550 | 10 | 286 | 8.0 | 24.1 | 0.00 | 2.49 | 0.05 | 69 | 1004.8 |
| 20260504212041 | 10 | 229 | 16.1 | 22.5 | 0.00 | 2.54 | 0.05 | 68 | 1004.7 |
| 20260504211532 | 10 | 226 | 16.1 | 30.6 | 0.00 | 2.57 | 0.05 | 68 | 1004.8 |
| 20260504211032 | 10 | 227 | 16.1 | 30.6 | 0.00 | 2.57 | 0.05 | 69 | 1004.8 |
| 20260504210532 | 10 | 221 | 14.5 | 27.4 | 0.00 | 2.59 | 0.05 | 68 | 1004.9 |
| 20260504205530 | 10 | 255 | 9.7 | 30.6 | 0.00 | 2.62 | 0.05 | 66 | 1004.7 |
| 20260504205030 | 10 | 249 | 11.3 | 30.6 | 0.00 | 2.64 | 0.05 | 68 | 1004.6 |
| 20260504204532 | 10 | 244 | 9.7 | 37.0 | 0.00 | 2.64 | 0.05 | 67 | 1004.6 |
| 20260504204030 | 10 | 230 | 16.1 | 37.0 | 0.00 | 2.67 | 0.05 | 66 | 1004.6 |
| 20260504203529 | 10 | 264 | 9.7 | 41.8 | 0.00 | 2.67 | 0.05 | 65 | 1004.7 |
| 20260504203029 | 10 | 240 | 11.3 | 41.8 | 0.00 | 2.67 | 0.05 | 65 | 1004.5 |
| 20260504202527 | 10 | 251 | 14.5 | 40.2 | 0.00 | 2.72 | 0.05 | 66 | 1004.5 |
| 20260504202025 | 10 | 248 | 19.3 | 40.2 | 0.00 | 2.74 | 0.05 | 67 | 1004.6 |
| 20260504201525 | 10 | 229 | 14.5 | 37.0 | 0.00 | 2.74 | 0.05 | 68 | 1004.6 |
| 20260504201025 | 10 | 226 | 12.9 | 45.1 | 0.00 | 2.77 | 0.05 | 67 | 1004.7 |
| 20260504200020 | 11 | 243 | 8.0 | 43.5 | 0.00 | 2.82 | 0.05 | 64 | 1004.2 |
| 20260504195518 | 11 | 228 | 12.9 | 38.6 | 0.00 | 2.82 | 0.05 | 63 | 1004.2 |
| 20260504195018 | 12 | 264 | 12.9 | 40.2 | 0.00 | 2.82 | 0.05 | 62 | 1004.4 |
| 20260504194517 | 12 | 260 | 22.5 | 40.2 | 0.00 | 2.87 | 0.05 | 61 | 1004.0 |
| 20260504194014 | 12 | 230 | 19.3 | 40.2 | 0.00 | 2.87 | 0.05 | 61 | 1003.7 |
| 20260504193513 | 12 | 255 | 20.9 | 46.7 | 0.00 | 2.92 | 0.05 | 60 | 1003.9 |
| 20260504193014 | 12 | 237 | 17.7 | 46.7 | 0.00 | 2.95 | 0.05 | 59 | 1003.8 |
| 20260504192513 | 12 | 255 | 20.9 | 57.9 | 0.00 | 2.95 | 0.05 | 58 | 1003.8 |
| 20260504192011 | 13 | 131 | 16.1 | 57.9 | 0.00 | 3.02 | 0.05 | 57 | 1003.6 |
| 20260504191510 | 13 | 229 | 29.0 | 45.1 | 0.00 | 3.05 | 0.05 | 53 | 1003.6 |
| 20260504191010 | 13 | 221 | 32.2 | 45.1 | 0.00 | 3.07 | 0.05 | 53 | 1003.8 |
| 20260504190512 | 13 | 255 | 22.5 | 45.1 | 0.00 | 3.15 | 0.05 | 53 | 1003.5 |
| 20260504190011 | 13 | 234 | 24.1 | 40.2 | 0.00 | 3.17 | 0.05 | 52 | 1003.5 |
| 20260504185510 | 13 | 247 | 19.3 | 45.1 | 0.00 | 3.20 | 0.05 | 52 | 1003.5 |
| 20260504185011 | 12 | 256 | 25.7 | 45.1 | 0.00 | 3.20 | 0.05 | 53 | 1003.3 |
| 20260504184511 | 13 | 242 | 35.4 | 40.2 | 0.00 | 3.23 | 0.05 | 50 | 1003.5 |
| 20260504184010 | 13 | 248 | 16.1 | 45.1 | 0.00 | 3.28 | 0.05 | 52 | 1003.5 |
| 20260504183508 | 12 | 240 | 24.1 | 45.1 | 0.00 | 3.28 | 0.05 | 51 | 1003.4 |
| 20260504183006 | 12 | 232 | 27.4 | 45.1 | 0.00 | 3.33 | 0.05 | 50 | 1003.8 |
| 20260504182505 | 12 | 251 | 24.1 | 40.2 | 0.00 | 3.35 | 0.05 | 49 | 1003.8 |
| 20260504182002 | 13 | 244 | 19.3 | 46.7 | 0.00 | 3.35 | 0.05 | 49 | 1003.7 |
| 20260504181500 | 13 | 235 | 30.6 | 46.7 | 0.00 | 3.38 | 0.05 | 47 | 1003.6 |
| 20260504181001 | 13 | 231 | 29.0 | 53.1 | 0.00 | 3.40 | 0.05 | 46 | 1003.8 |
| 20260504180459 | 13 | 256 | 20.9 | 53.1 | 0.00 | 3.45 | 0.05 | 45 | 1004.1 |
| 20260504175958 | 13 | 228 | 11.3 | 48.3 | 0.00 | 3.45 | 0.05 | 44 | 1003.7 |
| 20260504175458 | 13 | 237 | 17.7 | 41.8 | 0.00 | 3.45 | 0.05 | 39 | 1003.7 |
| 20260504174955 | 13 | 256 | 24.1 | 41.8 | 0.00 | 3.48 | 0.05 | 38 | 1003.7 |
| 20260504174453 | 13 | 194 | 17.7 | 41.8 | 0.00 | 3.51 | 0.05 | 42 | 1003.4 |
| 20260504173953 | 13 | 238 | 25.7 | 43.5 | 0.00 | 3.53 | 0.05 | 39 | 1003.7 |
| 20260504173453 | 14 | 242 | 14.5 | 43.5 | 0.00 | 3.56 | 0.05 | 42 | 1003.8 |
| 20260504172952 | 13 | 222 | 12.9 | 38.6 | 0.00 | 3.61 | 0.05 | 42 | 1003.7 |
| 20260504172451 | 13 | 219 | 9.7 | 38.6 | 0.00 | 3.63 | 0.05 | 39 | 1003.7 |
| 20260504171951 | 14 | 247 | 24.1 | 33.8 | 0.00 | 3.66 | 0.05 | 39 | 1003.8 |
| 20260504170949 | 13 | 252 | 17.7 | 40.2 | 0.00 | 3.73 | 0.05 | 40 | 1003.7 |
| 20260504170448 | 13 | 216 | 29.0 | 40.2 | 0.00 | 3.78 | 0.05 | 39 | 1003.7 |
| 20260504160432 | 13 | 240 | 20.9 | 32.2 | 0.00 | 4.75 | 0.05 | 41 | 1004.3 |
| 20260504150920 | 11 | 221 | 32.2 | 40.2 | 0.00 | 5.66 | 0.05 | 37 | 1004.6 |
| 20260504150418 | 11 | 244 | 17.7 | 40.2 | 0.00 | 5.69 | 0.05 | 40 | 1004.7 |
| 20260504140916 | 9 | 268 | 24.1 | 46.7 | 0.00 | 5.99 | 0.05 | 49 | 1004.9 |
| 20260504140415 | 9 | 266 | 19.3 | 46.7 | 0.00 | 6.05 | 0.05 | 54 | 1004.9 |
| 20260504130403 | 7 | 269 | 20.9 | 32.2 | 0.00 | 6.10 | 0.05 | 64 | 1004.6 |
| 20260504110335 | 5 | 271 | 22.5 | 29.0 | 0.00 | 6.10 | 0.05 | 79 | 1002.7 |
| 20260504100321 | 5 | 227 | 19.3 | 25.7 | 0.00 | 6.12 | 0.05 | 84 | 1001.7 |
| 20260504081805 | 5 | 270 | 17.7 | 27.4 | 0.00 | 6.12 | 0.05 | 90 | 999.2 |
| 20260504081306 | 5 | 290 | 19.3 | 27.4 | 0.00 | 6.12 | 0.05 | 90 | 999.4 |
| 20260504080804 | 5 | 260 | 17.7 | 29.0 | 0.00 | 6.12 | 0.05 | 90 | 999.3 |
| 20260504080304 | 5 | 276 | 19.3 | 29.0 | 0.00 | 6.12 | 0.05 | 90 | 999.2 |
| 20260504070258 | 5 | 291 | 16.1 | 25.7 | 0.00 | 6.12 | 0.05 | 90 | 998.7 |
| 20260504050253 | 4 | 274 | 12.9 | 29.0 | 0.00 | 6.12 | 0.05 | 94 | 997.0 |
| 20260504045752 | 4 | 265 | 9.7 | 29.0 | 0.00 | 6.12 | 0.05 | 94 | 997.0 |
| 20260504045253 | 4 | 230 | 19.3 | 24.1 | 0.00 | 6.12 | 0.05 | 94 | 997.0 |
| 20260504044804 | 4 | 293 | 12.9 | 33.8 | 0.03 | 6.12 | 0.05 | 93 | 996.9 |
| 20260504044249 | 4 | 295 | 16.1 | 37.0 | 0.03 | 6.12 | 0.05 | 92 | 996.8 |
| 20260504043749 | 4 | 279 | 19.3 | 37.0 | 0.03 | 6.12 | 0.05 | 92 | 996.9 |
| 20260504043250 | 3 | 285 | 16.1 | 40.2 | 0.03 | 6.12 | 0.05 | 93 | 996.8 |
| 20260504042749 | 3 | 299 | 20.9 | 40.2 | 0.03 | 6.12 | 0.05 | 92 | 996.8 |
| 20260504042249 | 3 | 257 | 17.7 | 35.4 | 0.03 | 6.12 | 0.05 | 92 | 996.8 |
| 20260504041749 | 3 | 292 | 25.7 | 33.8 | 0.03 | 6.12 | 0.05 | 93 | 996.7 |
| 20260504040750 | 3 | 303 | 14.5 | 33.8 | 0.03 | 6.12 | 0.05 | 93 | 996.5 |
| 20260504040250 | 3 | 295 | 27.4 | 30.6 | 0.05 | 6.12 | 0.05 | 93 | 996.4 |
| 20260504035749 | 3 | 292 | 11.3 | 30.6 | 0.05 | 6.12 | 0.05 | 93 | 996.6 |
| 20260504035248 | 3 | 294 | 12.9 | 30.6 | 0.05 | 6.12 | 0.05 | 93 | 996.3 |
| 20260504034748 | 3 | 297 | 22.5 | 30.6 | 0.05 | 6.10 | 0.03 | 93 | 996.1 |
| 20260504034247 | 3 | 276 | 12.9 | 32.2 | 0.08 | 6.10 | 0.03 | 93 | 996.1 |
| 20260504033747 | 3 | 272 | 11.3 | 40.2 | 0.13 | 6.10 | 0.03 | 93 | 995.9 |
| 20260504033247 | 3 | 302 | 29.0 | 48.3 | 0.15 | 6.10 | 0.03 | 92 | 995.9 |
| 20260504032746 | 3 | 298 | 29.0 | 48.3 | 0.18 | 6.10 | 0.03 | 92 | 995.9 |
| 20260504032246 | 3 | 257 | 17.7 | 48.3 | 0.20 | 6.10 | 0.03 | 92 | 995.6 |
| 20260504031746 | 3 | 279 | 16.1 | 48.3 | 0.20 | 6.10 | 0.03 | 92 | 995.7 |
| 20260504030745 | 3 | 288 | 19.3 | 51.5 | 0.25 | 6.10 | 0.03 | 92 | 995.4 |
| 20260504030245 | 3 | 305 | 22.5 | 48.3 | 0.23 | 6.07 | 0.00 | 92 | 995.2 |
| 20260504025745 | 3 | 291 | 20.9 | 48.3 | 0.28 | 6.07 | 6.07 | 92 | 995.1 |
| 20260504025246 | 3 | 302 | 29.0 | 37.0 | 0.30 | 6.07 | 6.07 | 93 | 995.0 |
| 20260504024744 | 3 | 297 | 29.0 | 37.0 | 0.30 | 6.05 | 6.05 | 93 | 995.0 |
| 20260504024240 | 3 | 299 | 20.9 | 37.0 | 0.33 | 6.02 | 6.02 | 93 | 995.1 |
| 20260504023240 | 3 | 292 | 29.0 | 46.7 | 0.33 | 5.94 | 5.94 | 92 | 994.8 |
| 20260504022740 | 3 | 272 | 16.1 | 38.6 | 0.36 | 5.92 | 5.92 | 93 | 994.7 |
| 20260504021738 | 3 | 299 | 17.7 | 41.8 | 0.43 | 5.89 | 5.89 | 93 | 994.4 |
| 20260504021251 | 3 | 304 | 27.4 | 41.8 | 0.43 | 5.87 | 5.87 | 92 | 994.3 |
| 20260504020735 | 3 | 303 | 27.4 | 37.0 | 0.43 | 5.84 | 5.84 | 93 | 994.2 |
| 20260504020234 | 3 | 288 | 22.5 | 40.2 | 0.43 | 5.84 | 5.84 | 93 | 994.2 |
| 20260504015727 | 3 | 312 | 29.0 | 48.3 | 0.46 | 5.79 | 5.79 | 93 | 994.2 |
| 20260504015225 | 3 | 306 | 20.9 | 48.3 | 0.46 | 5.77 | 5.77 | 93 | 994.2 |
| 20260504013721 | 2 | 292 | 24.1 | 41.8 | 0.43 | 5.64 | 5.64 | 92 | 993.9 |
| 20260504013220 | 2 | 302 | 32.2 | 49.9 | 0.46 | 5.61 | 5.61 | 92 | 993.7 |
| 20260504012216 | 2 | 308 | 27.4 | 51.5 | 0.46 | 5.51 | 5.51 | 91 | 993.8 |
| 20260504011714 | 3 | 295 | 38.6 | 51.5 | 0.43 | 5.46 | 5.49 | 90 | 993.6 |
| 20260504011214 | 3 | 299 | 32.2 | 49.9 | 0.46 | 5.44 | 5.44 | 88 | 993.5 |
| 20260504010713 | 3 | 302 | 27.4 | 51.5 | 0.46 | 5.41 | 5.41 | 88 | 993.3 |
| 20260504010207 | 3 | 297 | 38.6 | 56.3 | 0.46 | 5.38 | 5.38 | 89 | 993.3 |
| 20260504005708 | 3 | 306 | 38.6 | 56.3 | 0.46 | 5.33 | 5.33 | 89 | 993.1 |
| 20260504004707 | 2 | 299 | 29.0 | 62.8 | 0.48 | 5.28 | 5.28 | 92 | 992.8 |
| 20260504004205 | 2 | 288 | 27.4 | 48.3 | 0.51 | 5.23 | 5.23 | 93 | 992.8 |
| 20260504003704 | 2 | 296 | 32.2 | 61.2 | 0.51 | 5.23 | 5.23 | 93 | 993.0 |
| 20260504003204 | 2 | 300 | 22.5 | 61.2 | 0.51 | 5.16 | 5.16 | 92 | 992.8 |
| 20260504002703 | 2 | 282 | 14.5 | 46.7 | 0.48 | 5.11 | 5.11 | 91 | 992.5 |
| 20260504002159 | 2 | 302 | 14.5 | 45.1 | 0.48 | 5.05 | 5.05 | 89 | 992.5 |
| 20260504001158 | 2 | 297 | 41.8 | 48.3 | 0.48 | 4.98 | 4.98 | 88 | 992.2 |
| 20260504000658 | 2 | 310 | 8.0 | 48.3 | 0.48 | 4.95 | 4.95 | 88 | 992.1 |
| 20260503235658 | 2 | 294 | 16.1 | 57.9 | 0.48 | 4.88 | 4.88 | 89 | 992.0 |
| 20260503235157 | 2 | 303 | 27.4 | 57.9 | 0.48 | 4.83 | 4.85 | 89 | 991.8 |
| 20260503234156 | 2 | 300 | 14.5 | 38.6 | 0.46 | 4.72 | 4.72 | 93 | 991.9 |
| 20260503233153 | 2 | 298 | 12.9 | 33.8 | 0.46 | 4.65 | 4.65 | 92 | 991.9 |
| 20260503232652 | 2 | 283 | 20.9 | 33.8 | 0.51 | 4.60 | 4.60 | 91 | 991.8 |
| 20260503232151 | 2 | 288 | 3.2 | 30.6 | 0.51 | 4.55 | 4.55 | 90 | 991.7 |